| time (UTC) | temp F | wind direction | speed MPH | gust MPH | rain 1hr in | rain 24hr in | rain mn in | humidity % | barometer mb |
| 20260503190034 | 46 | 280 | 1.0 | 10.0 | 0.00 | 0.10 | 0.00 | 46 | 1006.8 |
| 20260503184536 | 47 | 244 | 2.0 | 6.0 | 0.00 | 0.14 | 0.00 | 46 | 1006.8 |
| 20260503183035 | 49 | 282 | 1.0 | 7.0 | 0.00 | 0.14 | 0.00 | 46 | 1006.6 |
| 20260503181544 | 47 | 223 | 1.0 | 5.0 | 0.00 | 0.14 | 0.00 | 48 | 1006.6 |
| 20260503180033 | 47 | 171 | 2.0 | 9.0 | 0.00 | 0.14 | 0.00 | 48 | 1006.6 |
| 20260503174534 | 48 | 231 | 1.0 | 7.0 | 0.00 | 0.14 | 0.00 | 45 | 1006.5 |
| 20260503173035 | 48 | 248 | 2.0 | 4.0 | 0.00 | 0.14 | 0.00 | 48 | 1006.4 |
| 20260503171535 | 47 | 0 | 1.0 | 5.0 | 0.00 | 0.14 | 0.00 | 53 | 1006.4 |
| 20260503081540 | 33 | 0 | 0.0 | 0.0 | 0.00 | 0.28 | 0.00 | 99 | 1008.5 |
| 20260503071530 | 33 | 0 | 0.0 | 0.0 | 0.00 | 0.29 | 0.00 | 98 | 1008.7 |
| 20260503054544 | 33 | 0 | 0.0 | 0.0 | 0.00 | 0.34 | 0.00 | 98 | 1009.7 |
| 20260503053032 | 33 | 0 | 0.0 | 1.0 | 0.00 | 0.34 | 0.00 | 98 | 1009.7 |
| 20260503051532 | 33 | 0 | 0.0 | 1.0 | 0.00 | 0.34 | 0.00 | 98 | 1009.9 |
| 20260503050034 | 33 | 0 | 0.0 | 1.0 | 0.00 | 0.34 | 0.00 | 97 | 1010.1 |
| 20260503044539 | 34 | 0 | 0.0 | 1.0 | 0.00 | 0.34 | 0.00 | 97 | 1010.1 |
| 20260503043042 | 34 | 0 | 0.0 | 0.0 | 0.00 | 0.34 | 0.00 | 97 | 1010.3 |
| 20260503041532 | 34 | 0 | 0.0 | 0.0 | 0.00 | 0.34 | 0.00 | 97 | 1010.6 |
| 20260503040035 | 35 | 0 | 0.0 | 0.0 | 0.00 | 0.34 | 0.00 | 96 | 1010.6 |
| 20260503034532 | 35 | 0 | 0.0 | 0.0 | 0.00 | 0.34 | 0.34 | 96 | 1010.7 |
| 20260503033034 | 36 | 0 | 0.0 | 0.0 | 0.00 | 0.34 | 0.34 | 96 | 1011.0 |
| 20260503031534 | 37 | 0 | 0.0 | 0.0 | 0.00 | 0.34 | 0.34 | 96 | 1010.9 |
| 20260503030036 | 38 | 0 | 0.0 | 0.0 | 0.00 | 0.34 | 0.34 | 96 | 1011.0 |
| 20260503024537 | 38 | 0 | 0.0 | 0.0 | 0.00 | 0.34 | 0.34 | 96 | 1011.0 |
| 20260503023036 | 39 | 0 | 0.0 | 0.0 | 0.00 | 0.34 | 0.34 | 96 | 1011.1 |
| 20260503021535 | 39 | 0 | 0.0 | 0.0 | 0.00 | 0.34 | 0.34 | 96 | 1011.3 |
| 20260503020034 | 39 | 0 | 0.0 | 0.0 | 0.00 | 0.34 | 0.34 | 96 | 1011.4 |
| 20260503014531 | 39 | 0 | 0.0 | 0.0 | 0.00 | 0.34 | 0.34 | 96 | 1011.5 |
| 20260503013039 | 40 | 0 | 0.0 | 0.0 | 0.00 | 0.34 | 0.34 | 95 | 1011.2 |
| 20260503011533 | 41 | 0 | 0.0 | 1.0 | 0.00 | 0.34 | 0.34 | 96 | 1011.2 |
| 20260503010031 | 42 | 0 | 0.0 | 1.0 | 0.00 | 0.34 | 0.34 | 97 | 1010.9 |
| 20260503004600 | 42 | 0 | 0.0 | 0.0 | 0.00 | 0.34 | 0.34 | 97 | 1010.7 |
| 20260503003044 | 42 | 0 | 0.0 | 0.0 | 0.00 | 0.34 | 0.34 | 97 | 1010.5 |
| 20260503001541 | 43 | 0 | 0.0 | 0.0 | 0.00 | 0.34 | 0.34 | 96 | 1010.3 |
| 20260503000041 | 43 | 0 | 0.0 | 0.0 | 0.00 | 0.34 | 0.34 | 96 | 1010.1 |
| 20260502234543 | 43 | 0 | 0.0 | 0.0 | 0.00 | 0.34 | 0.34 | 96 | 1010.0 |
| 20260502233039 | 44 | 0 | 0.0 | 0.0 | 0.00 | 0.34 | 0.34 | 95 | 1010.0 |
| 20260502231535 | 44 | 0 | 0.0 | 0.0 | 0.00 | 0.34 | 0.34 | 94 | 1009.9 |
| 20260502230037 | 44 | 0 | 0.0 | 0.0 | 0.00 | 0.34 | 0.34 | 93 | 1009.9 |
| 20260502224543 | 45 | 0 | 0.0 | 1.0 | 0.00 | 0.34 | 0.34 | 93 | 1009.8 |
| 20260502223042 | 45 | 0 | 0.0 | 0.0 | 0.00 | 0.34 | 0.34 | 92 | 1009.8 |
| 20260502221533 | 46 | 0 | 0.0 | 0.0 | 0.00 | 0.34 | 0.34 | 92 | 1009.8 |
| 20260502220035 | 47 | 0 | 0.0 | 0.0 | 0.00 | 0.34 | 0.34 | 92 | 1009.6 |
| 20260502214532 | 47 | 0 | 0.0 | 1.0 | 0.00 | 0.34 | 0.34 | 91 | 1009.7 |
| 20260502213031 | 47 | 0 | 0.0 | 0.0 | 0.00 | 0.34 | 0.34 | 90 | 1009.6 |
| 20260502211534 | 47 | 0 | 0.0 | 0.0 | 0.01 | 0.34 | 0.34 | 88 | 1009.7 |
| 20260502210037 | 49 | 0 | 0.0 | 2.0 | 0.02 | 0.34 | 0.34 | 87 | 1009.7 |
| 20260502204533 | 47 | 0 | 0.0 | 1.0 | 0.03 | 0.34 | 0.34 | 92 | 1009.7 |
| 20260502203038 | 47 | 154 | 0.0 | 3.0 | 0.05 | 0.34 | 0.34 | 93 | 1009.7 |
| 20260502201533 | 45 | 0 | 0.0 | 0.0 | 0.06 | 0.33 | 0.33 | 94 | 1009.8 |
| 20260502200032 | 45 | 0 | 0.0 | 1.0 | 0.08 | 0.32 | 0.32 | 92 | 1009.9 |
| 20260502194533 | 44 | 229 | 0.0 | 1.0 | 0.11 | 0.31 | 0.31 | 93 | 1010.0 |
| 20260502193033 | 45 | 173 | 0.0 | 3.0 | 0.09 | 0.29 | 0.29 | 93 | 1010.1 |
| 20260502191531 | 46 | 146 | 0.0 | 1.0 | 0.07 | 0.27 | 0.27 | 92 | 1010.1 |